Mexico City Airport, México

7:34 AM CDT en Mayo 21, 2018 (GMT -0500)
Lic Benito Juarez International

Tiempo Historia de MMMX - Mayo, 2018

Change the Weather History Date:

Jueves, Mayo 17, 2018

  Actual Average Record
Temperature  
Temperatura media 68 ° F -  
Temperatura máxima 80 ° F 76 ° F 87 ° F (1999)
Temperatura mínima 57 ° F 53 ° F 48 ° F (1997)
Cooling Degree Days 4    
Growing Degree Days 18 (Base 50)    
Moisture  
Punto de rocío 42 ° F    
Average Humidity 40    
Maximum Humidity 67    
Minimum Humidity 20    
Precipitación  
Precipitación 0.00 pul - - ()
Presión al nivel del mar  
Presión al nivel del mar 30.11 pul    
Viento  
Velocidad del viento 7 mph ()    
Velocidad máxima del viento 21 mph    
Max Gust Speed -    
Visibilidad 9.0 Millas    
Eventos      
Averages and records for this station are not official NWS values.
T = Trace of Precipitation, MM = Missing Value Source: Averaged Metar Reports

Daily Weather History Graph

Daily Weather History Graph

Search for Another Location

Airport or City:

Astronomía

May. 17, 2018 Salida Puesta
Hora real 7:00 AM CDT 8:05 PM CDT
Crepúsculo civil 6:36 AM CDT 8:28 PM CDT
Crepúsculo náutico 6:08 AM CDT 8:56 PM CDT
Crepúsculo astronómico 5:40 AM CDT 9:25 PM CDT
Luna 9:06 AM CDT (5/17) 10:38 PM CDT (5/17)
Horas de luz 13h 52m
Horas de luz
13h 04m
Creciente, 7% of the Moon is Illuminated
May 17
Creciente
May 21
Cuarto creciente
May 29
Luna llena
Jun 6
Cuarto menguante
Jun 13
Nueva

Hourly Weather History & Observations

Hora (CDT) Temp. Punto de rocío Humedad Presión Visibilidad Wind Dir Velocidad del viento Velocidad de ráfagas Precip Eventos Condiciones
12:54 AM 64.4 ° F 48.2 ° F 56% 29.77 pul 10.0 mi NNE 5.8 mph - N/A   Despejado
1:51 AM 62.6 ° F 48.2 ° F 59% 30.32 pul 10.0 mi NE 4.6 mph - N/A   Despejado
2:51 AM 60.8 ° F 48.2 ° F 63% 30.30 pul 10.0 mi Este 3.5 mph - N/A   Despejado
3:47 AM 60.8 ° F 48.2 ° F 63% 29.72 pul 8.0 mi NE 5.8 mph - N/A   Nubes dispersas
4:41 AM 59.0 ° F 46.4 ° F 63% 30.28 pul 8.0 mi Este 3.5 mph - N/A   Nubes dispersas
5:47 AM 57.2 ° F 46.4 ° F 67% 30.28 pul 8.0 mi NE 5.8 mph - N/A   Nubes dispersas
6:54 AM 57.2 ° F 46.4 ° F 67% 29.72 pul 8.0 mi Este 5.8 mph - N/A   Muy nublado
7:44 AM 59.0 ° F 46.4 ° F 63% 30.29 pul 7.0 mi Este 4.6 mph - N/A   Nubes dispersas
8:45 AM 60.8 ° F 42.8 ° F 52% 30.31 pul 7.0 mi Este 5.8 mph - N/A   Despejado
9:20 AM 64.4 ° F 46.4 ° F 52% 30.31 pul 7.0 mi Este 5.8 mph - N/A   Despejado
9:43 AM 66.2 ° F 48.2 ° F 52% 29.76 pul 6.0 mi Este 2.3 mph - N/A   Despejado
10:43 AM 69.8 ° F 44.6 ° F 40% 30.31 pul 6.0 mi Este 2.3 mph - N/A   Nubes dispersas
11:34 AM 73.4 ° F 41.0 ° F 31% 30.31 pul 6.0 mi ONO 9.2 mph - N/A   Despejado
11:44 AM 73.4 ° F 41.0 ° F 31% 30.31 pul 6.0 mi SO 3.5 mph - N/A   Despejado
12:45 PM 75.2 ° F 33.8 ° F 22% 29.71 pul 7.0 mi NE 12.7 mph - N/A   Nubes dispersas
1:39 PM 78.8 ° F 35.6 ° F 21% 30.27 pul 8.0 mi Norte 13.8 mph - N/A   Parcialmente nublado
1:41 PM 78.8 ° F 35.6 ° F 21% 30.27 pul 8.0 mi Norte 13.8 mph - N/A   Parcialmente nublado
2:43 PM 78.8 ° F 37.4 ° F 23% 30.25 pul 8.0 mi Este 3.5 mph - N/A   Nubes dispersas
3:42 PM 80.6 ° F 35.6 ° F 20% 29.65 pul 9.0 mi NO 15.0 mph - N/A   Nubes dispersas
4:47 PM 80.6 ° F 35.6 ° F 20% 30.20 pul 10.0 mi NO 15.0 mph - N/A   Nubes dispersas
5:46 PM 80.6 ° F 37.4 ° F 21% 30.18 pul 10.0 mi NNE 15.0 mph - N/A   Nubes dispersas
6:51 PM 78.8 ° F 37.4 ° F 23% 29.63 pul 12.0 mi NNE 12.7 mph - N/A   Muy nublado
7:44 PM 77.0 ° F 35.6 ° F 22% 30.20 pul 12.0 mi NNE 11.5 mph - N/A   Muy nublado
8:29 PM 73.4 ° F 39.2 ° F 29% 30.23 pul 12.0 mi NE 20.7 mph - N/A   Muy nublado
8:45 PM 73.4 ° F 39.2 ° F 29% 30.23 pul 12.0 mi NNE 17.3 mph - N/A   Muy nublado
9:48 PM 69.8 ° F 41.0 ° F 35% 29.72 pul 12.0 mi NE 12.7 mph - N/A   Nubes dispersas
10:46 PM 68.0 ° F 41.0 ° F 37% 30.29 pul 12.0 mi Norte 5.8 mph - N/A   Nubes dispersas
11:48 PM 68.0 ° F 41.0 ° F 37% 30.31 pul 12.0 mi NE 4.6 mph - N/A   Nubes dispersas